EW3263 Weather Reports


Display with metric or nautical units.
time (UTC)temp
F
wind
direction
speed
MPH
gust
MPH
rain 1hr
in
rain 24hr
in
rain mn
in
humidity
%
barometer
mb
20260904064551 60 0.0 0.0 0.00 0.00 0.00 85 1018.6
20260904063043 60 0.0 0.0 0.00 0.00 0.00 83 1018.5
20260904061544 60 0.0 0.0 0.00 0.00 0.00 82 1018.2
20260904060032 61 0.0 0.0 0.00 0.00 0.00 82 1018.3
20260904054528 61 0.0 0.0 0.00 0.00 0.00 83 1018.3
20260904053023 62 0.0 0.0 0.00 0.00 0.00 81 1018.3
20260904051518 62 0.0 0.0 0.00 0.00 0.00 80 1018.4
20260904050018 62 0.0 0.0 0.00 0.00 0.00 80 1018.5
20260904044511 62 0.0 0.0 0.00 0.00 0.00 79 1018.4
20260904043006 63 0.0 0.0 0.00 0.00 0.00 78 1018.3
20260904041501 64 0.0 0.0 0.00 0.00 0.00 77 1018.3
20260904040057 64 0.0 0.0 0.00 0.00 0.00 77 1018.3
20260904034552 65 0.0 0.0 0.00 0.00 0.00 75 1018.2
20260904033048 65 0.0 0.0 0.00 0.00 0.00 74 1018.1
20260904031544 66 0.0 0.0 0.00 0.00 0.00 72 1018.1
20260904030039 67 0.0 0.0 0.00 0.00 0.00 71 1018.0
20260904024535 68 0.0 0.0 0.00 0.00 0.00 69 1017.9
20260904023031 68 0.0 0.0 0.00 0.00 0.00 68 1017.8
20260904021527 69 0.0 0.0 0.00 0.00 0.00 65 1017.7
20260904020021 70 0.0 0.0 0.00 0.00 0.00 65 1017.7
20260904014518 71 0.0 0.0 0.00 0.00 0.00 61 1017.8
20260904013013 72 0.0 0.0 0.00 0.00 0.00 60 1017.8
20260904011509 72 0.0 0.0 0.00 0.00 0.00 59 1017.9
20260904010005 72 0.0 0.0 0.00 0.00 0.00 57 1017.9
20260904004600 73 0.0 0.0 0.00 0.00 0.00 56 1017.9
20260904003056 75 0.0 0.0 0.00 0.00 0.00 54 1017.8
20260904001556 75 0.0 0.0 0.00 0.00 0.00 54 1017.8
20260904000049 75 0.0 0.0 0.00 0.00 0.00 54 1017.7
20260903234543 76 0.0 0.0 0.00 0.00 0.00 52 1017.7
20260903233046 77 0.0 0.0 0.00 0.00 0.00 49 1017.8
20260903231534 78 0.0 0.0 0.00 0.00 0.00 47 1017.9
20260903230034 78 0.0 0.0 0.00 0.00 0.00 45 1018.0
20260903224528 79 0.0 0.0 0.00 0.00 0.00 45 1018.1
20260903223021 79 0.0 0.0 0.00 0.00 0.00 46 1018.2
20260903221517 79 0.0 0.0 0.00 0.00 0.00 47 1018.3
20260903220012 80 0.0 0.0 0.00 0.00 0.00 47 1018.4
20260903214508 80 0.0 0.0 0.00 0.00 0.00 46 1018.4
20260903213004 81 0.0 0.0 0.00 0.00 0.00 45 1018.5
20260903211604 82 0.0 0.0 0.00 0.00 0.00 44 1018.6
20260903210107 81 0.0 0.0 0.00 0.00 0.00 44 1018.5
20260903204551 82 0.0 0.0 0.00 0.00 0.00 44 1018.5
20260903203047 83 0.0 0.0 0.00 0.00 0.00 36 1018.5
20260903201542 83 0.0 0.0 0.00 0.00 0.00 31 1018.7
20260903200038 83 0.0 0.0 0.00 0.00 0.00 30 1018.8
20260903194534 82 0.0 0.0 0.00 0.00 0.00 31 1019.0
20260903193029 82 0.0 0.0 0.00 0.00 0.00 31 1019.1
20260903191529 82 0.0 0.0 0.00 0.00 0.00 31 1019.3
20260903190021 82 0.0 0.0 0.00 0.00 0.00 30 1019.6
20260903184516 81 0.0 0.0 0.00 0.00 0.00 31 1019.8
20260903183012 79 0.0 0.0 0.00 0.00 0.00 31 1020.1
20260903181507 79 0.0 0.0 0.00 0.00 0.00 32 1020.3
20260903180004 78 0.0 0.0 0.00 0.00 0.00 31 1020.3
20260903174559 77 0.0 0.0 0.00 0.00 0.00 31 1020.4
20260903173054 76 0.0 0.0 0.00 0.00 0.00 30 1020.5
20260903171549 75 0.0 0.0 0.00 0.00 0.00 22 1020.5
20260903170046 74 0.0 0.0 0.00 0.00 0.00 28 1020.5
20260903164541 72 0.0 0.0 0.00 0.00 0.00 27 1020.5
20260903163042 72 0.0 0.0 0.00 0.00 0.00 28 1020.4
20260903161532 72 0.0 0.0 0.00 0.00 0.00 29 1020.5
20260903160028 71 0.0 0.0 0.00 0.00 0.00 32 1020.6
20260903154524 70 0.0 0.0 0.00 0.00 0.00 33 1020.5
20260903153020 68 0.0 0.0 0.00 0.00 0.00 39 1020.5
20260903151516 68 0.0 0.0 0.00 0.00 0.00 36 1020.5
20260903150013 66 0.0 0.0 0.00 0.00 0.00 26 1020.5
20260903144507 61 0.0 0.0 0.00 0.00 0.00 34 1020.5
20260903143005 57 0.0 0.0 0.00 0.00 0.00 34 1020.4
20260903141558 55 0.0 0.0 0.00 0.00 0.00 36 1020.4
20260903140053 54 0.0 0.0 0.00 0.00 0.00 37 1020.1
20260903134550 54 0.0 0.0 0.00 0.00 0.00 39 1019.9
20260903133045 53 0.0 0.0 0.00 0.00 0.00 42 1019.9
20260903131550 53 0.0 0.0 0.00 0.00 0.00 44 1019.9
20260903130036 53 0.0 0.0 0.00 0.00 0.00 49 1019.9
20260903124535 53 0.0 0.0 0.00 0.00 0.00 51 1019.9
20260903123037 53 0.0 0.0 0.00 0.00 0.00 53 1019.8
20260903121531 53 0.0 0.0 0.00 0.00 0.00 56 1019.8
20260903120019 53 0.0 0.0 0.00 0.00 0.00 57 1019.8
20260903114515 53 0.0 0.0 0.00 0.00 0.00 59 1019.8
20260903113024 53 0.0 0.0 0.00 0.00 0.00 59 1019.8
20260903111505 53 0.0 0.0 0.00 0.00 0.00 57 1019.8
20260903110000 54 0.0 0.0 0.00 0.00 0.00 57 1019.8
20260903104557 54 0.0 0.0 0.00 0.00 0.00 57 1019.8
20260903103053 54 0.0 0.0 0.00 0.00 0.00 58 1019.7
20260903101551 54 0.0 0.0 0.00 0.00 0.00 59 1019.8
20260903100044 55 0.0 0.0 0.00 0.00 0.00 61 1019.8
20260903094540 55 0.0 0.0 0.00 0.00 0.00 61 1019.8
20260903093041 56 0.0 0.0 0.00 0.00 0.00 61 1019.9
20260903091535 56 0.0 0.0 0.00 0.00 0.00 66 1020.1
20260903090027 56 0.0 0.0 0.00 0.00 0.00 67 1020.3
20260903084524 57 0.0 0.0 0.00 0.00 0.00 67 1020.3
20260903083024 57 0.0 0.0 0.00 0.00 0.00 65 1020.5
20260903081515 57 0.0 0.0 0.00 0.00 0.00 66 1020.6
20260903080011 58 0.0 0.0 0.00 0.00 0.00 69 1020.7
20260903074505 58 0.0 0.0 0.00 0.00 0.00 70 1020.7
20260903073101 58 0.0 0.0 0.00 0.00 0.00 70 1020.8
20260903071556 58 0.0 0.0 0.00 0.00 0.00 72 1020.8
20260903070052 59 0.0 0.0 0.00 0.00 0.00 72 1020.7